SCP
0 0 0 0 0 0 0 0 0 0 0 0 0 0 0 0 0 0 0 0 0 0
0 0 0 0 0 0 0 0 0 0 0 0 0 0 0 0 0 0 0 0 0 0
0 0 0 0 0 0 0 0 0 0 0 0 0 0 0 0 0 0 0 0 0 0
0 0 0 0 0 0 0 0 0 0 0 0 0 0 0 0 0 0 0 0 0 0
0 0 0 0 0 0 0 0 0 0 0 0 0 0 0 0 0 0 0 0 0 0
0 0 0 0 0 0 0 0 0 0 0 0 0 0 0 0 0 0 0 0 0 0
0 0 0 0 0 0 0 0 0 0 0 0 0 0 0 0 0 0 0 0 0 0
0 0 0 0 0 0 0 0 0 0 0 0 0 0 0 0 0 0 0 0 0 0
0 0 0 0 0 0 0 0 0 0 0 0 0 0 0 0 0 0 0 0 0 0
0 0 0 0 0 0 0 0 0 0 0 0 0 0 0 0 0 0 0 0 0 0
0 0 0 0 0 0 0 0 0 0 0 0 0 0 0 0 0 0 0 0 0 0
0 0 0 0 0 0 0 0 0 0 0 0 0 0 0 0 0 0 0 0 0 0
0 0 0 0 0 0 0 0 0 0 0 0 0 0 0 0 0 0 0 0 0 0
0 0 0 0 0 0 0 0 0 0 0 0 0 0 0 0 0 0 0 0 0 0
Wind_Speed_500mb
55 59 61 61 62 57 61 63 56 52 57 60 58 54 51 48 50 49 47 45 41 41
53 48 45 50 58 66 65 61 54 55 53 51 45 41 43 44 44 47 46 40 38 40
49 46 38 43 44 40 43 40 49 43 47 40 40 43 36 35 37 34 33 34 31 34
34 32 33 30 31 33 29 25 23 21 17 19 23 23 22 24 25 26 26 26 27 29
29 30 30 28 24 20 18 16 16 19 19 20 19 19 19 19 18 17 18 19 20 22
24 24 24 25 24 23 23 23 21 19 16 14 13 12 12 11 11 12 14 15 16 18
27 26 25 24 23 21 19 17 15 14 12 10 8 8 8 9 9 10 12 13 15 17
28 26 25 23 21 18 17 15 13 10 8 5 4 5 6 8 10 13 14 16 18 20
25 24 22 20 17 14 12 10 8 7 5 2 3 5 7 10 13 16 17 18 18 19
19 17 16 14 11 8 6 5 3 1 0 3 5 6 6 8 10 12 14 15 17 16
13 11 10 8 7 5 3 1 1 3 5 5 5 8 9 9 11 11 12 14 16 16
10 7 5 3 2 1 2 3 5 5 6 7 8 9 10 11 12 12 11 12 13 14
7 6 5 4 4 5 5 6 7 7 7 8 10 10 10 10 10 11 11 10 11 12
8 7 7 7 8 8 9 10 10 9 8 8 8 8 7 6 8 8 10 12 13 15
Wind_Direction_500mb
226 228 228 229 228 236 228 224 225 217 216 222 226 230 236 243 247 245 249 250 258 263
229 223 221 228 221 213 208 214 221 218 220 220 228 233 237 245 254 263 257 256 261 268
220 225 219 216 222 218 215 198 212 199 214 222 234 238 237 247 247 240 247 252 257 261
214 207 209 200 190 195 201 202 205 216 217 229 235 239 237 238 243 244 245 247 251 256
202 209 208 208 200 199 207 210 218 222 218 217 217 222 228 235 239 246 251 255 259 263
180 185 184 192 193 191 194 188 185 189 195 199 207 216 224 231 241 246 250 256 261 265
139 144 147 149 154 159 160 162 162 165 173 179 194 213 229 241 250 258 266 272 278 284
134 135 136 138 140 142 143 146 148 150 160 170 195 237 257 277 285 287 290 290 290 290
131 131 132 132 133 136 136 135 135 150 150 180 260 276 297 302 302 300 297 294 293 294
135 136 137 138 138 142 145 147 157 152 335 311 306 302 301 287 292 293 293 293 295 299
146 146 145 145 151 158 170 219 296 328 334 331 333 323 327 315 316 315 311 309 309 313
151 152 155 169 192 232 294 319 326 335 336 333 339 334 331 328 328 330 329 321 314 311
167 178 199 225 253 268 277 285 296 306 311 315 318 323 329 325 322 322 319 310 304 301
202 213 227 249 269 280 287 291 291 288 284 281 284 292 295 296 301 307 308 308 308 306
Wind_Speed_850mb
55 59 61 61 62 57 61 63 56 52 57 60 58 54 51 48 50 49 47 45 41 41
53 48 45 50 58 66 65 61 54 55 53 51 45 41 43 44 44 47 46 40 38 40
49 46 38 43 44 40 43 40 49 43 47 40 40 43 36 35 37 34 33 34 31 34
34 32 33 30 31 33 29 25 23 21 17 19 23 23 22 24 25 26 26 26 27 29
29 30 30 28 24 20 18 16 16 19 19 20 19 19 19 19 18 17 18 19 20 22
24 24 24 25 24 23 23 23 21 19 16 14 13 12 12 11 11 12 14 15 16 18
27 26 25 24 23 21 19 17 15 14 12 10 8 8 8 9 9 10 12 13 15 17
28 26 25 23 21 18 17 15 13 10 8 5 4 5 6 8 10 13 14 16 18 20
25 24 22 20 17 14 12 10 8 7 5 2 3 5 7 10 13 16 17 18 18 19
19 17 16 14 11 8 6 5 3 1 0 3 5 6 6 8 10 12 14 15 17 16
13 11 10 8 7 5 3 1 1 3 5 5 5 8 9 9 11 11 12 14 16 16
10 7 5 3 2 1 2 3 5 5 6 7 8 9 10 11 12 12 11 12 13 14
7 6 5 4 4 5 5 6 7 7 7 8 10 10 10 10 10 11 11 10 11 12
8 7 7 7 8 8 9 10 10 9 8 8 8 8 7 6 8 8 10 12 13 15
Wind_Direction_850mb
226 228 228 229 228 236 228 224 225 217 216 222 226 230 236 243 247 245 249 250 258 263
229 223 221 228 221 213 208 214 221 218 220 220 228 233 237 245 254 263 257 256 261 268
220 225 219 216 222 218 215 198 212 199 214 222 234 238 237 247 247 240 247 252 257 261
214 207 209 200 190 195 201 202 205 216 217 229 235 239 237 238 243 244 245 247 251 256
202 209 208 208 200 199 207 210 218 222 218 217 217 222 228 235 239 246 251 255 259 263
180 185 184 192 193 191 194 188 185 189 195 199 207 216 224 231 241 246 250 256 261 265
139 144 147 149 154 159 160 162 162 165 173 179 194 213 229 241 250 258 266 272 278 284
134 135 136 138 140 142 143 146 148 150 160 170 195 237 257 277 285 287 290 290 290 290
131 131 132 132 133 136 136 135 135 150 150 180 260 276 297 302 302 300 297 294 293 294
135 136 137 138 138 142 145 147 157 152 335 311 306 302 301 287 292 293 293 293 295 299
146 146 145 145 151 158 170 219 296 328 334 331 333 323 327 315 316 315 311 309 309 313
151 152 155 169 192 232 294 319 326 335 336 333 339 334 331 328 328 330 329 321 314 311
167 178 199 225 253 268 277 285 296 306 311 315 318 323 329 325 322 322 319 310 304 301
202 213 227 249 269 280 287 291 291 288 284 281 284 292 295 296 301 307 308 308 308 306